International Skating Union - Official Site

Essent ISU World Allround Championships 2013
February 16-17, 2013

Draw | Lap Times | Index | Classification

Referee: Susan  SANDVIG-SHOBE  (USA)
Starter: Janny  SMEGEN  (NED)
StartTime: EndTime: Air Temp: Ice Temp: Humidity:
16:52 18:48 16.6℃ -9.7℃ 27.4
Result 5000m Men
Rankings as of Feb 16 2013 6:49PM
Rank: No.: Name: Nation: Time: Behind: Points:
1 15 Sven  Kramer NED NED 6:13.42200m - 18.38 - (18.3)
600m - 47.49 - (29.1)
1000m - 1:17.22 - (29.7)
1400m - 1:46.92 - (29.7)
1800m - 2:16.21 - (29.2)
2200m - 2:45.79 - (29.5)
2600m - 3:15.32 - (29.5)
3000m - 3:44.90 - (29.5)
3400m - 4:14.50 - (29.6)
3800m - 4:44.11 - (29.6)
4200m - 5:13.60 - (29.4)
4600m - 5:43.30 - (29.7)
5000m - 6:13.42 - (30.1)
37.342
2 28 Ivan  Skobrev RUS RUS 6:19.06200m - 19.79 - (19.7)
600m - 50.10 - (30.3)
1000m - 1:20.28 - (30.1)
1400m - 1:50.61 - (30.3)
1800m - 2:20.79 - (30.1)
2200m - 2:51.02 - (30.2)
2600m - 3:21.24 - (30.2)
3000m - 3:51.61 - (30.3)
3400m - 4:21.61 - (30.0)
3800m - 4:51.52 - (29.9)
4200m - 5:21.14 - (29.6)
4600m - 5:50.01 - (28.8)
5000m - 6:19.06 - (29.0)
5.64 37.906
3 2 Bart  Swings BEL BEL 6:19.72200m - 18.82 - (18.8)
600m - 48.33 - (29.5)
1000m - 1:18.48 - (30.1)
1400m - 1:48.51 - (30.0)
1800m - 2:18.59 - (30.0)
2200m - 2:48.95 - (30.3)
2600m - 3:19.09 - (30.1)
3000m - 3:49.38 - (30.2)
3400m - 4:19.33 - (29.9)
3800m - 4:49.39 - (30.0)
4200m - 5:19.36 - (29.9)
4600m - 5:49.37 - (30.0)
5000m - 6:19.72 - (30.3)
6.30 37.972
4 22 Sverre  Lunde Pedersen NOR NOR 6:20.06200m - 18.93 - (18.9)
600m - 48.54 - (29.6)
1000m - 1:18.88 - (30.3)
1400m - 1:49.13 - (30.2)
1800m - 2:19.30 - (30.1)
2200m - 2:49.44 - (30.1)
2600m - 3:19.72 - (30.2)
3000m - 3:49.84 - (30.1)
3400m - 4:19.74 - (29.8)
3800m - 4:49.68 - (29.9)
4200m - 5:19.49 - (29.8)
4600m - 5:49.41 - (29.9)
5000m - 6:20.06 - (30.6)
6.64 38.006
5 19 Håvard  Bøkko NOR NOR 6:22.00200m - 18.64 - (18.6)
600m - 48.46 - (29.8)
1000m - 1:18.90 - (30.4)
1400m - 1:49.06 - (30.1)
1800m - 2:19.45 - (30.3)
2200m - 2:49.89 - (30.4)
2600m - 3:20.01 - (30.1)
3000m - 3:50.07 - (30.0)
3400m - 4:20.20 - (30.1)
3800m - 4:50.66 - (30.4)
4200m - 5:21.01 - (30.3)
4600m - 5:51.48 - (30.4)
5000m - 6:22.00 - (30.5)
8.58 38.200
6 17 Koen  Verweij NED NED 6:24.35200m - 18.32 - (18.3)
600m - 47.12 - (28.7)
1000m - 1:17.26 - (30.1)
1400m - 1:47.74 - (30.4)
1800m - 2:18.44 - (30.7)
2200m - 2:48.94 - (30.5)
2600m - 3:19.68 - (30.7)
3000m - 3:50.45 - (30.7)
3400m - 4:21.60 - (31.1)
3800m - 4:52.71 - (31.1)
4200m - 5:23.70 - (30.9)
4600m - 5:54.37 - (30.6)
5000m - 6:24.35 - (29.9)
10.93 38.435
7 16 Renz  Rotteveel NED NED 6:25.12200m - 18.48 - (18.4)
600m - 47.59 - (29.1)
1000m - 1:17.33 - (29.7)
1400m - 1:47.42 - (30.0)
1800m - 2:17.91 - (30.4)
2200m - 2:48.33 - (30.4)
2600m - 3:18.99 - (30.6)
3000m - 3:49.66 - (30.6)
3400m - 4:20.57 - (30.9)
3800m - 4:51.49 - (30.9)
4200m - 5:22.55 - (31.0)
4600m - 5:53.85 - (31.2)
5000m - 6:25.12 - (31.2)
11.70 38.512
8 14 Jan  Blokhuijsen NED NED 6:25.89200m - 18.94 - (18.9)
600m - 49.18 - (30.2)
1000m - 1:19.53 - (30.3)
1400m - 1:50.24 - (30.7)
1800m - 2:21.37 - (31.1)
2200m - 2:52.17 - (30.8)
2600m - 3:22.88 - (30.7)
3000m - 3:53.45 - (30.5)
3400m - 4:23.93 - (30.4)
3800m - 4:54.52 - (30.5)
4200m - 5:25.03 - (30.5)
4600m - 5:55.43 - (30.4)
5000m - 6:25.89 - (30.4)
12.47 38.589
9 30 Jonathan  Kuck USA USA 6:27.62200m - 19.54 - (19.5)
600m - 49.23 - (29.6)
1000m - 1:18.93 - (29.7)
1400m - 1:48.59 - (29.6)
1800m - 2:18.35 - (29.7)
2200m - 2:48.43 - (30.0)
2600m - 3:18.66 - (30.2)
3000m - 3:49.28 - (30.6)
3400m - 4:20.24 - (30.9)
3800m - 4:51.67 - (31.4)
4200m - 5:23.50 - (31.8)
4600m - 5:55.52 - (32.0)
5000m - 6:27.62 - (32.1)
14.20 38.762
10 29 Denis  Yuskov RUS RUS 6:28.23200m - 19.40 - (19.4)
600m - 50.54 - (31.1)
1000m - 1:21.38 - (30.8)
1400m - 1:52.10 - (30.7)
1800m - 2:22.60 - (30.5)
2200m - 2:52.90 - (30.3)
2600m - 3:23.34 - (30.4)
3000m - 3:54.09 - (30.7)
3400m - 4:24.67 - (30.5)
3800m - 4:55.32 - (30.6)
4200m - 5:25.99 - (30.6)
4600m - 5:57.08 - (31.0)
5000m - 6:28.23 - (31.1)
14.81 38.823
11 7 Moritz  Geisreiter GER GER 6:31.13200m - 19.06 - (19.0)
600m - 48.95 - (29.8)
1000m - 1:19.61 - (30.6)
1400m - 1:50.65 - (31.0)
1800m - 2:21.44 - (30.8)
2200m - 2:52.18 - (30.7)
2600m - 3:23.11 - (30.9)
3000m - 3:54.20 - (31.0)
3400m - 4:25.25 - (31.0)
3800m - 4:56.05 - (30.8)
4200m - 5:27.50 - (31.4)
4600m - 5:59.29 - (31.7)
5000m - 6:31.13 - (31.8)
17.71 39.113
12 13 Haralds  Silovs LAT LAT 6:32.52200m - 18.93 - (18.9)
600m - 49.47 - (30.5)
1000m - 1:20.77 - (31.3)
1400m - 1:51.80 - (31.0)
1800m - 2:22.61 - (30.8)
2200m - 2:53.31 - (30.7)
2600m - 3:24.13 - (30.8)
3000m - 3:55.06 - (30.9)
3400m - 4:26.27 - (31.2)
3800m - 4:57.56 - (31.2)
4200m - 5:28.97 - (31.4)
4600m - 6:00.57 - (31.5)
5000m - 6:32.52 - (31.9)
19.10 39.252
13 12 Dmitry  Babenko KAZ KAZ 6:34.93200m - 18.35 - (18.3)
600m - 47.89 - (29.5)
1000m - 1:17.65 - (29.7)
1400m - 1:47.23 - (29.5)
1800m - 2:17.22 - (29.9)
2200m - 2:48.12 - (30.9)
2600m - 3:19.69 - (31.5)
3000m - 3:51.45 - (31.7)
3400m - 4:23.48 - (32.0)
3800m - 4:55.93 - (32.4)
4200m - 5:28.83 - (32.9)
4600m - 6:01.65 - (32.8)
5000m - 6:34.93 - (33.2)
21.51 39.493
14 26 Jan  Szymanski POL POL 6:35.43200m - 18.81 - (18.8)
600m - 48.95 - (30.1)
1000m - 1:19.49 - (30.5)
1400m - 1:49.13 - (29.6)
1800m - 2:18.98 - (29.8)
2200m - 2:49.00 - (30.0)
2600m - 3:19.42 - (30.4)
3000m - 3:50.48 - (31.0)
3400m - 4:21.83 - (31.3)
3800m - 4:54.56 - (32.7)
4200m - 5:28.27 - (33.7)
4600m - 6:02.03 - (33.7)
5000m - 6:35.43 - (33.4)
22.01 39.543
15 23 Zbigniew  Brodka POL POL 6:35.88200m - 19.19 - (19.2)
600m - 50.21 - (31.0)
1000m - 1:21.97 - (31.7)
1400m - 1:53.00 - (31.0)
1800m - 2:24.02 - (31.0)
2200m - 2:55.12 - (31.1)
2600m - 3:26.40 - (31.2)
3000m - 3:57.62 - (31.2)
3400m - 4:28.93 - (31.3)
3800m - 5:00.19 - (31.2)
4200m - 5:31.79 - (31.6)
4600m - 6:03.67 - (31.8)
5000m - 6:35.88 - (32.2)
22.46 39.588
16 24 Roland  Cieslak POL POL 6:37.71200m - 20.10 - (20.1)
600m - 50.93 - (30.8)
1000m - 1:22.07 - (31.1)
1400m - 1:53.05 - (30.9)
1800m - 2:24.27 - (31.2)
2200m - 2:55.46 - (31.1)
2600m - 3:27.02 - (31.5)
3000m - 3:58.42 - (31.4)
3400m - 4:30.21 - (31.7)
3800m - 5:01.76 - (31.5)
4200m - 5:33.64 - (31.8)
4600m - 6:05.62 - (31.9)
5000m - 6:37.71 - (32.0)
24.29 39.771
17 4 Alec  Janssens CAN CAN 6:39.87200m - 19.88 - (19.8)
600m - 50.26 - (30.3)
1000m - 1:21.13 - (30.8)
1400m - 1:52.49 - (31.3)
1800m - 2:23.69 - (31.1)
2200m - 2:54.85 - (31.1)
2600m - 3:26.53 - (31.6)
3000m - 3:58.06 - (31.5)
3400m - 4:29.87 - (31.8)
3800m - 5:01.96 - (32.0)
4200m - 5:34.23 - (32.2)
4600m - 6:06.86 - (32.6)
5000m - 6:39.87 - (33.0)
26.45 39.987
18 11 Hiroki  Abe JPN JPN 6:41.94200m - 20.07 - (20.0)
600m - 51.67 - (31.5)
1000m - 1:23.69 - (32.0)
1400m - 1:55.54 - (31.8)
1800m - 2:27.73 - (32.1)
2200m - 2:59.23 - (31.5)
2600m - 3:30.88 - (31.6)
3000m - 4:02.77 - (31.8)
3400m - 4:34.29 - (31.5)
3800m - 5:05.81 - (31.5)
4200m - 5:37.41 - (31.5)
4600m - 6:09.52 - (32.1)
5000m - 6:41.94 - (32.4)
28.52 40.194
19 21 Simen Spieler  Nilsen NOR NOR 6:42.07200m - 19.10 - (19.1)
600m - 49.93 - (30.8)
1000m - 1:21.03 - (31.1)
1400m - 1:52.57 - (31.5)
1800m - 2:23.93 - (31.3)
2200m - 2:55.55 - (31.6)
2600m - 3:27.21 - (31.6)
3000m - 3:58.99 - (31.7)
3400m - 4:31.12 - (32.1)
3800m - 5:03.46 - (32.3)
4200m - 5:36.06 - (32.6)
4600m - 6:09.02 - (32.9)
5000m - 6:42.07 - (33.0)
28.65 40.207
20 9 Marco  Cignini ITA ITA 6:42.76200m - 19.78 - (19.7)
600m - 51.22 - (31.4)
1000m - 1:22.16 - (30.9)
1400m - 1:53.18 - (31.0)
1800m - 2:24.38 - (31.2)
2200m - 2:55.76 - (31.3)
2600m - 3:27.11 - (31.3)
3000m - 3:58.82 - (31.7)
3400m - 4:30.53 - (31.7)
3800m - 5:02.72 - (32.1)
4200m - 5:35.54 - (32.8)
4600m - 6:08.82 - (33.2)
5000m - 6:42.76 - (33.9)
29.34 40.276
21 5 Lucas  Makowsky CAN CAN 6:46.75200m - 19.42 - (19.4)
600m - 50.58 - (31.1)
1000m - 1:21.90 - (31.3)
1400m - 1:52.89 - (30.9)
1800m - 2:23.82 - (30.9)
2200m - 2:55.26 - (31.4)
2600m - 3:27.19 - (31.9)
3000m - 3:59.49 - (32.3)
3400m - 4:32.03 - (32.5)
3800m - 5:05.16 - (33.1)
4200m - 5:38.66 - (33.5)
4600m - 6:12.40 - (33.7)
5000m - 6:46.75 - (34.3)
33.33 40.675
22 6 Longjiang  Sun CHN CHN 6:50.93200m - 20.58 - (20.5)
600m - 53.24 - (32.6)
1000m - 1:25.40 - (32.1)
1400m - 1:57.11 - (31.7)
1800m - 2:28.74 - (31.6)
2200m - 3:00.47 - (31.7)
2600m - 3:32.33 - (31.8)
3000m - 4:04.32 - (31.9)
3400m - 4:36.76 - (32.4)
3800m - 5:09.59 - (32.8)
4200m - 5:42.83 - (33.2)
4600m - 6:16.40 - (33.5)
5000m - 6:50.93 - (34.5)
37.51 41.093
23 32 Joey  Mantia USA USA 6:55.19200m - 19.73 - (19.7)
600m - 51.19 - (31.4)
1000m - 1:23.51 - (32.3)
1400m - 1:55.62 - (32.1)
1800m - 2:27.49 - (31.8)
2200m - 2:59.54 - (32.0)
2600m - 3:32.06 - (32.5)
3000m - 4:04.91 - (32.8)
3400m - 4:37.98 - (33.0)
3800m - 5:11.84 - (33.8)
4200m - 5:45.82 - (33.9)
4600m - 6:20.43 - (34.6)
5000m - 6:55.19 - (34.7)
41.77 41.519
24 1 Bram  Smallenbroek AUT AUT WDR -